Athens, GA

4:48 PM EST on December 16, 2017 (GMT -0500)
Athens / Epps

Weather History for KAHN - November, 2012

Change the Weather History Date:

Tuesday, November 6, 2012

  Actual Average Record
Temperature  
Mean Temperature 48 °F 57 °F  
Max Temperature 54 °F 68 °F 82 °F (2003)
Min Temperature 41 °F 45 °F 26 °F (1962)
Degree Days  
Heating Degree Days 17 9  
Month to date heating degree days 59 48  
Since 1 July heating degree days 182 183  
Moisture  
Dew Point 42 °F    
Average Humidity 77    
Maximum Humidity 100    
Minimum Humidity 54    
Precipitation  
Precipitation 0.40 in 0.11 in 1.15 in (2015)
Month to date precipitation 0.40 0.69  
Year to date precipitation 30.94 39.47  
Snow  
Snow 0.00 in 0.00 in 0.00 in (2001)
Month to date snowfall 0.0 0.0  
Since 1 July snowfall 0.0 0.0  
Since 1 September snowfall 0.0 0.0  
Snow Depth -    
Sea Level Pressure  
Sea Level Pressure 29.99 in    
Wind  
Wind Speed 8 mph (ENE)    
Max Wind Speed 17 mph    
Max Gust Speed 23 mph    
Visibility 4 miles    
Events Rain    
T = Trace of Precipitation, MM = Missing Value Source: NWS Daily Summary

Daily Weather History Graph

Daily Weather History Graph

Search for Another Location

Airport or City:

Trip Planner

Search our weather history database for the weather conditions in past years. The results will help you decide how hot, cold, wet, or windy it might be!

Date:

Astronomy

Nov. 06, 2012 Rise Set
Actual Time 6:57 AM EST 5:35 PM EST
Civil Twilight 6:31 AM EST 6:01 PM EST
Nautical Twilight 6:01 AM EST 6:31 PM EST
Astronomical Twilight 5:32 AM EST 7:00 PM EST
Moon No Moon Rise 12:51 PM EST (11/6)
Length of Visible Light 11h 30m
Length of Day
10h 38m
Waning Gibbous, 53% of the Moon is Illuminated
Nov 6
Waning Gibbous
Nov 6
Last Quarter
Nov 13
New
Nov 20
First Quarter
Nov 28
Full

Hourly Weather History & Observations

Time (EST) Temp. Windchill Dew Point Humidity Pressure Visibility Wind Dir Wind Speed Gust Speed Precip Events Conditions
12:51 AM 48.9 °F - 45.0 °F 86% 29.98 in 4.0 mi ESE 3.5 mph - 0.01 in Rain Light Rain
1:51 AM 48.9 °F - 46.0 °F 90% 29.96 in 4.0 mi East 5.8 mph - 0.05 in Rain Light Rain
2:39 AM 48.2 °F - 46.4 °F 93% 29.98 in 2.0 mi Calm Calm - 0.03 in Rain Rain
2:51 AM 48.0 °F - 46.9 °F 96% 29.98 in 2.5 mi Calm Calm - 0.05 in Rain Rain
3:08 AM 48.2 °F - 46.4 °F 93% 29.98 in 3.0 mi East 3.5 mph - 0.02 in Rain Rain
3:46 AM 48.2 °F - 46.4 °F 93% 29.97 in 2.5 mi East 4.6 mph - 0.06 in Rain Light Rain
3:51 AM 48.0 °F - 46.9 °F 96% 29.97 in 2.5 mi East 5.8 mph - 0.06 in Rain Light Rain
4:04 AM 46.4 °F 43.5 °F 46.4 °F 100% 29.97 in 3.0 mi East 5.8 mph - 0.01 in Rain Light Rain
4:26 AM 46.4 °F 44.3 °F 46.4 °F 100% 29.98 in 2.5 mi East 4.6 mph - 0.02 in Rain Light Rain
4:51 AM 46.9 °F - 46.0 °F 97% 29.99 in 2.0 mi East 4.6 mph - 0.06 in Rain Light Rain
5:20 AM 46.4 °F 42.9 °F 46.4 °F 100% 29.99 in 2.0 mi ENE 6.9 mph - 0.05 in Rain Rain
5:39 AM 46.4 °F 42.4 °F 46.4 °F 100% 30.00 in 3.0 mi ENE 8.1 mph - 0.07 in Rain Light Rain
5:51 AM 46.4 °F 42.9 °F 44.6 °F 93% 29.99 in 3.0 mi ENE 6.9 mph - N/A Rain Light Rain
6:00 AM 46.4 °F 41.5 °F 44.6 °F 93% 29.99 in 4.0 mi ENE 10.4 mph - 0.00 in Rain Light Rain
6:10 AM 46.4 °F 41.9 °F 44.6 °F 93% 29.99 in 4.0 mi ENE 9.2 mph - 0.00 in Rain Light Rain
6:51 AM 44.6 °F 39.7 °F 44.6 °F 100% 30.00 in 2.5 mi East 9.2 mph - N/A Rain Rain
7:05 AM 44.6 °F 39.7 °F 44.6 °F 100% 30.00 in 3.0 mi NE 9.2 mph - 0.02 in Rain Light Rain
7:26 AM 44.6 °F 39.2 °F 42.8 °F 93% 30.01 in 2.5 mi ENE 10.4 mph - 0.03 in Rain Light Rain
7:35 AM 44.6 °F 38.4 °F 42.8 °F 93% 30.01 in 3.0 mi ENE 12.7 mph - 0.04 in Rain Light Rain
7:51 AM 44.1 °F 38.6 °F 43.0 °F 96% 30.02 in 1.5 mi ENE 10.4 mph - 0.05 in Rain Rain
8:09 AM 44.6 °F 38.8 °F 42.8 °F 93% 30.01 in 2.5 mi ENE 11.5 mph - 0.02 in Rain Light Rain
8:51 AM 42.8 °F 36.2 °F 42.8 °F 100% 30.02 in 2.5 mi ENE 12.7 mph - N/A Rain Light Rain
9:37 AM 44.6 °F 38.8 °F 42.8 °F 93% 30.02 in 3.0 mi NE 11.5 mph - 0.00 in   Overcast
9:51 AM 44.1 °F 37.7 °F 42.1 °F 93% 30.03 in 3.0 mi ENE 12.7 mph 20.7 mph 0.00 in   Overcast
10:37 AM 46.4 °F 40.7 °F 42.8 °F 87% 30.02 in 4.0 mi ENE 12.7 mph 20.7 mph N/A   Overcast
10:51 AM 48.0 °F - 44.1 °F 86% 30.03 in 4.0 mi ENE 15.0 mph 19.6 mph N/A   Overcast
11:28 AM 46.4 °F 41.9 °F 41.0 °F 81% 30.00 in 5.0 mi ENE 9.2 mph 21.9 mph N/A   Haze
11:51 AM 48.0 °F - 39.9 °F 74% 30.00 in 5.0 mi ENE 16.1 mph 23.0 mph N/A   Haze
12:00 PM 48.2 °F - 41.0 °F 76% 29.99 in 6.0 mi East 13.8 mph - N/A   Haze
12:13 PM 50.0 °F - 39.2 °F 66% 29.98 in 6.0 mi ENE 16.1 mph 20.7 mph N/A   Haze
12:51 PM 50.0 °F - 39.0 °F 66% 29.98 in 6.0 mi ENE 10.4 mph 20.7 mph N/A   Haze
1:34 PM 51.8 °F - 39.2 °F 62% 29.95 in 7.0 mi ENE 11.5 mph - N/A   Overcast
1:51 PM 53.6 °F - 37.4 °F 54% 29.94 in 7.0 mi East 12.7 mph - N/A   Mostly Cloudy
2:51 PM 53.1 °F - 37.9 °F 57% 29.94 in 7.0 mi East 10.4 mph - N/A   Overcast
3:51 PM 53.1 °F - 37.0 °F 55% 29.92 in 7.0 mi NE 9.2 mph - N/A   Overcast
4:51 PM 51.8 °F - 35.6 °F 54% 29.94 in 7.0 mi ENE 5.8 mph - N/A   Overcast
5:51 PM 50.0 °F - 37.0 °F 61% 29.96 in 8.0 mi ENE 4.6 mph - N/A   Overcast
6:51 PM 48.0 °F - 35.1 °F 61% 29.97 in 7.0 mi NE 4.6 mph - N/A   Mostly Cloudy
7:51 PM 46.9 °F - 35.1 °F 63% 29.97 in 7.0 mi East 5.8 mph - N/A   Overcast
8:51 PM 44.1 °F 40.8 °F 34.0 °F 68% 29.99 in 7.0 mi East 5.8 mph - N/A   Mostly Cloudy
9:51 PM 42.1 °F 38.4 °F 34.0 °F 73% 29.99 in 7.0 mi East 5.8 mph - N/A   Partly Cloudy
10:51 PM 43.0 °F - 35.1 °F 74% 29.98 in 7.0 mi Calm Calm - N/A   Overcast
11:51 PM 43.0 °F - 35.1 °F 74% 29.97 in 6.0 mi Calm Calm - N/A   Haze